Weather in Sovetskoye

Russia / Sakhalin District     47°29′38″N   142°39′42″E
В апреле 2022 года жителям России запретили посещать сайт meteo.paraplan.net по решению Генеральной прокуратуры. Аудитория сайта уменьшилась в 10 раз. Владельцы сайта не видят смысла в поддержке погодного сервера в таких условиях. Сайт будет закрыт в октябре.
temp.,
°C
wind,
m/s
gust,
m/s
humid.,
%
clouds,
%
prec.,
mm/h
press.,
hPa
HPBL,
m
3 october, mon
mon323:00+7ssw49885 0.0 1022282
02:00+9ssw498872 0.0 1020311
05:00+10sw359229 0.0 1018183
08:00+10ssw4893100 0.0 1017181
11:00+16sw6117450 0.0 1016481
14:00+19ssw613676 0.0 1013506
17:00+19sw111876100 0.0 1011590
20:00+18sw101779100 0.0 1011590
4 october, tue
tue423:00+17sw101777100 0.0 1009583
02:00+17ssw91676100 0.0 1006588
05:00+17ssw71477100 0.0 1003618
08:00+15ssw4895100 2.8 1000349
11:00+14nw4596100 10.3 999198
14:00+10nw61189100 5.0 999626
17:00+9nw71179100 5.4 1000869
20:00+8nw711741 0.0 1003782
5 october, wed
wed523:00+8nw6971100 0.1 10041073
02:00+7wnw59785 0.2 1005638
05:00+5w357944 0.2 1006344
08:00+5nne6796100 1.5 1009717
11:00+7n676597 4.1 10111107
14:00+8n454975 0.0 10111416
17:00+8w355199 0.1 10121518
20:00+5wsw46677 0.1 1014473
6 october, thu
thu623:00+4sw477639 0.1 1014180
02:00+3sw4584100 0.0 1014189
05:00+3wsw4772100 0.0 1013253
08:00+4wsw386586 0.0 1014474
11:00+7w8114886 0.1 10142119
14:00+8w91046100 0.0 10142223
17:00+7w812545 0.1 10151767
20:00+5w5105819 0.0 10171056
7 october, fri
fri723:00+5wsw6965100 0.1 1019782
02:00+3wsw48655 0.0 1019378
05:00+2sw456921 0.0 1020130
08:00+2sw44745 0.0 1020106
11:00+9wsw584596 0.0 10201940
14:00+11w7941100 0.0 10192315
17:00+10wsw68465 0.0 10201901
20:00+6wsw37620 0.0 1022263